Regional Weather Roundup
Issued by NWS

Home | Current Version | Previous Version | Text Only | Print | Product List | Glossary On
Versions: 1 2 3 4 5 6 7 8 9 10 11 12 13 14 15 16 17 18 19 20 21 22 23 24 25 26 27 28 29 30 31 32 33 34 35 36 37 38 39 40 41 42 43 44 45 46 47 48 49 50
000
ASUS45 KBOI 070410
RWRID

IDAHO REGIONAL WEATHER ROUNDUP
NATIONAL WEATHER SERVICE BOISE ID
1000 PM MDT MON JUL 06 2015

NOTE: "FAIR" INDICATES FEW OR NO CLOUDS BELOW 12000 FEET
WITH NO SIGNIFICANT WEATHER AND/OR OBSTRUCTIONS TO VISIBILITY

IDZ012-014-070500-
SOUTHWEST IDAHO


CITY           SKY/WX    TMP DP  RH WIND       PRES   REMARKS
BOISE          PTCLDY    83  51  33 N6        29.94R
CALDWELL       PTCLDY    82  46  28 NE9       29.93R
MOUNTAIN HOME  PTCLDY    81  46  29 NW5       29.94S
$$

IDZ016-017-070500-
SOUTHCENTRAL IDAHO


CITY           SKY/WX    TMP DP  RH WIND       PRES   REMARKS
BURLEY         PTCLDY    74  53  48 N5        30.04R
JEROME         PTCLDY    70  56  61 CALM      30.04R
TWIN FALLS     CLEAR     70  52  52 S6        30.03R
$$

IDZ019>023-070500-
SOUTHEAST IDAHO


CITY           SKY/WX    TMP DP  RH WIND       PRES   REMARKS
IDAHO FALLS    PTCLDY    61  57  87 NW10      30.12R
POCATELLO      CLEAR     67  57  70 NW9       30.09R
REXBURG        PTCLDY    68  56  65 SE5       30.12R
$$

IDZ006-010-011-018-031-032-070500-
CENTRAL IDAHO MOUNTAINS


CITY           SKY/WX    TMP DP  RH WIND       PRES   REMARKS
MCCALL         CLEAR     72  42  34 CALM      30.09R
HAILEY         MOCLDY    68  55  64 W7        30.16R
STANLEY          N/A     60  46  59 SW3       30.22S
SALMON         CLEAR     72  37  28 CALM      30.02R
CHALLIS        PTCLDY    64  53  67 NW6       30.14R
$$

IDZ002-004-006-007-026-070500-
NORTHERN IDAHO


CITY           SKY/WX    TMP DP  RH WIND       PRES   REMARKS
LEWISTON       CLEAR     89  41  18 SE6       29.84S
LOWELL           N/A     74  53  48 N3        29.90R
COEUR D`ALENE  CLEAR     75  46  35 N7        29.92R
MULLAN PASS    MOCLDY    65  37  35 N5        30.18F
$$


USA.gov is the U.S. government's official web portal to all federal, state and local government web resources and services.